This is the latest recevied weather packets stored in our database for station/object DO1TOB-60. If no packets are shown the sender has not sent any weather packets the latest 1 day(s).
| Time | Temp. | Humidity | Pressure | Rain* | Wind** | Luminosity | Snow |
|---|---|---|---|---|---|---|---|
| 1778019287 | 10.56° C | 97% | 1007.3 hPa | 0.51 mm | 0.45 m/s, 340° | - | - |
| 1778019228 | 10.56° C | 97% | 1007.3 hPa | 0.51 mm | 0.89 m/s, 340° | - | - |
| 1778019168 | 10.56° C | 97% | 1007.3 hPa | 0.51 mm | 0.45 m/s, 336° | - | - |
| 1778019047 | 10.56° C | 97% | 1007.3 hPa | 0.51 mm | 0.89 m/s, 336° | - | - |
| 1778018987 | 10.56° C | 97% | 1007.3 hPa | 0.51 mm | 0.89 m/s, 336° | - | - |
| 1778018917 | 11.11° C | 97% | 1007.4 hPa | 0.51 mm | 0.45 m/s, 336° | - | - |
| 1778018677 | 11.11° C | 97% | 1007.3 hPa | 0.51 mm | 0.89 m/s, 336° | - | - |
| 1778018242 | 11.11° C | 97% | 1007.4 hPa | 0.51 mm | 1.34 m/s, 336° | - | - |
| 1778018126 | 11.11° C | 97% | 1007.4 hPa | 0.51 mm | 0.45 m/s, 335° | - | - |
| 1778018062 | 11.11° C | 97% | 1007.5 hPa | 0.51 mm | 0.89 m/s, 334° | - | - |
| 1778018002 | 11.11° C | 97% | 1007.4 hPa | 0.51 mm | 0.89 m/s, 333° | - | - |
| 1778017942 | 11.11° C | 97% | 1007.5 hPa | 0.76 mm | 0.45 m/s, 335° | - | - |
| 1778017822 | 11.11° C | 97% | 1007.5 hPa | 0.76 mm | 0.45 m/s, 335° | - | - |
| 1778017762 | 11.11° C | 97% | 1007.5 hPa | 0.76 mm | 0.45 m/s, 333° | - | - |
| 1778017582 | 11.11° C | 97% | 1007.6 hPa | 0.76 mm | 0.45 m/s, 340° | - | - |
| 1778017402 | 11.11° C | 97% | 1007.6 hPa | 0.76 mm | 0.45 m/s, 341° | - | - |
| 1778017102 | 11.11° C | 97% | 1007.6 hPa | 1.02 mm | 0.45 m/s, 342° | - | - |
| 1778016922 | 11.11° C | 97% | 1007.7 hPa | 1.02 mm | 0.89 m/s, 342° | - | - |
| 1778014462 | 11.11° C | 97% | 1007.8 hPa | 0.51 mm | 0.45 m/s, 54° | - | - |
| 1778014282 | 11.11° C | 97% | 1007.8 hPa | 0.51 mm | 1.79 m/s, 49° | - | - |
| 1778014163 | 11.11° C | 97% | 1007.8 hPa | 0.51 mm | 0.45 m/s, 28° | - | - |
| 1778011942 | 11.11° C | 97% | 1007.8 hPa | 0.51 mm | 0.45 m/s, 5° | - | - |
| 1778010622 | 11.11° C | 97% | 1007.7 hPa | 0.51 mm | 0.45 m/s, 51° | - | - |
| 1778010562 | 11.11° C | 97% | 1007.7 hPa | 0.51 mm | 0.45 m/s, 51° | - | - |
| 1778010502 | 11.11° C | 97% | 1007.7 hPa | 0.51 mm | 0.45 m/s, 44° | - | - |
* Rain latest hour (hover to see other rain measurements)
** Current wind speed in m/s (hover to see current wind gust speed)